| time (UTC) | temp F | wind direction | speed MPH | gust MPH | rain 1hr in | rain 24hr in | rain mn in | humidity % | barometer mb |
| 20260906060835 | 69 | 51 | 4.0 | 9.0 | 0.00 | 0.00 | 0.00 | 87 | 1022.0 |
| 20260906052411 | 69 | 76 | 4.0 | 11.0 | 0.00 | 0.00 | 0.00 | 87 | 1021.7 |
| 20260906044848 | 69 | 360 | 6.0 | 10.0 | 0.00 | 0.00 | 0.00 | 85 | 1021.6 |
| 20260906044331 | 69 | 360 | 5.0 | 10.0 | 0.00 | 0.00 | 0.00 | 85 | 1021.6 |
| 20260906043827 | 69 | 78 | 4.0 | 8.0 | 0.00 | 0.00 | 0.00 | 85 | 1021.6 |
| 20260906043526 | 69 | 95 | 3.0 | 9.0 | 0.00 | 0.00 | 0.00 | 85 | 1021.6 |
| 20260906043401 | 69 | 95 | 3.0 | 9.0 | 0.00 | 0.00 | 0.00 | 85 | 1021.6 |
| 20260906023845 | 70 | 194 | 0.0 | 3.0 | 0.00 | 0.00 | 0.00 | 82 | 1021.2 |
| 20260906023321 | 70 | 194 | 1.0 | 4.0 | 0.00 | 0.00 | 0.00 | 83 | 1021.2 |
| 20260906022823 | 70 | 194 | 2.0 | 4.0 | 0.00 | 0.00 | 0.00 | 83 | 1021.3 |
| 20260906022317 | 70 | 190 | 1.0 | 3.0 | 0.00 | 0.00 | 0.00 | 82 | 1021.3 |
| 20260906021819 | 70 | 244 | 0.0 | 3.0 | 0.00 | 0.00 | 0.00 | 82 | 1021.4 |
| 20260906021315 | 71 | 244 | 0.0 | 3.0 | 0.00 | 0.00 | 0.00 | 82 | 1021.5 |
| 20260906020839 | 71 | 272 | 0.0 | 2.0 | 0.00 | 0.00 | 0.00 | 82 | 1021.5 |
| 20260906014912 | 71 | 272 | 0.0 | 1.0 | 0.00 | 0.00 | 0.00 | 81 | 1021.5 |
| 20260906014323 | 71 | 272 | 0.0 | 1.0 | 0.00 | 0.00 | 0.00 | 81 | 1021.6 |
| 20260906013834 | 71 | 272 | 0.0 | 1.0 | 0.00 | 0.00 | 0.00 | 81 | 1021.6 |
| 20260906013320 | 71 | 272 | 0.0 | 3.0 | 0.00 | 0.00 | 0.00 | 81 | 1021.6 |
| 20260906012335 | 71 | 360 | 1.0 | 3.0 | 0.00 | 0.00 | 0.00 | 81 | 1021.7 |
| 20260906001904 | 70 | 273 | 0.0 | 2.0 | 0.00 | 0.00 | 0.00 | 86 | 1022.2 |
| 20260906000929 | 70 | 275 | 1.0 | 3.0 | 0.00 | 0.00 | 0.00 | 86 | 1022.3 |
| 20260905225923 | 70 | 267 | 0.0 | 3.0 | 0.00 | 0.00 | 0.00 | 84 | 1022.2 |
| 20260905172321 | 83 | 264 | 2.0 | 8.0 | 0.00 | 0.00 | 0.00 | 58 | 1019.9 |
| 20260905171325 | 84 | 360 | 4.0 | 6.0 | 0.00 | 0.00 | 0.00 | 55 | 1019.9 |
| 20260905170833 | 84 | 360 | 3.0 | 6.0 | 0.00 | 0.00 | 0.00 | 54 | 1019.8 |
| 20260905170323 | 83 | 360 | 3.0 | 6.0 | 0.00 | 0.00 | 0.00 | 57 | 1019.8 |
| 20260905165833 | 82 | 360 | 3.0 | 9.0 | 0.00 | 0.00 | 0.00 | 59 | 1019.7 |
| 20260905165347 | 81 | 360 | 3.0 | 9.0 | 0.00 | 0.00 | 0.00 | 62 | 1019.8 |
| 20260905164836 | 81 | 360 | 3.0 | 8.0 | 0.00 | 0.00 | 0.00 | 66 | 1019.8 |
| 20260905163831 | 80 | 360 | 5.0 | 10.0 | 0.00 | 0.00 | 0.00 | 67 | 1019.6 |
| 20260905163329 | 79 | 360 | 3.0 | 8.0 | 0.00 | 0.00 | 0.00 | 70 | 1019.7 |
| 20260905162834 | 79 | 360 | 2.0 | 9.0 | 0.00 | 0.00 | 0.00 | 70 | 1019.7 |
| 20260905162314 | 80 | 360 | 3.0 | 6.0 | 0.00 | 0.00 | 0.00 | 68 | 1019.5 |
| 20260905161855 | 81 | 360 | 3.0 | 4.0 | 0.00 | 0.00 | 0.00 | 66 | 1019.4 |
| 20260905161330 | 81 | 360 | 2.0 | 4.0 | 0.00 | 0.00 | 0.00 | 66 | 1019.3 |
| 20260905160833 | 81 | 242 | 1.0 | 4.0 | 0.00 | 0.00 | 0.00 | 65 | 1019.4 |
| 20260905160328 | 82 | 360 | 2.0 | 8.0 | 0.00 | 0.00 | 0.00 | 64 | 1019.4 |
| 20260905155829 | 83 | 360 | 4.0 | 8.0 | 0.00 | 0.00 | 0.00 | 61 | 1019.3 |
| 20260905155332 | 84 | 360 | 5.0 | 8.0 | 0.00 | 0.00 | 0.00 | 57 | 1019.3 |
| 20260905154847 | 85 | 360 | 4.0 | 8.0 | 0.00 | 0.00 | 0.00 | 57 | 1019.3 |
| 20260905153819 | 85 | 254 | 4.0 | 8.0 | 0.00 | 0.00 | 0.00 | 56 | 1019.2 |
| 20260905153321 | 85 | 360 | 4.0 | 9.0 | 0.00 | 0.00 | 0.00 | 56 | 1019.3 |
| 20260905152839 | 84 | 360 | 4.0 | 9.0 | 0.00 | 0.00 | 0.00 | 57 | 1019.4 |
| 20260905152318 | 83 | 360 | 4.0 | 9.0 | 0.00 | 0.00 | 0.00 | 59 | 1019.6 |
| 20260905151821 | 82 | 360 | 4.0 | 9.0 | 0.00 | 0.00 | 0.00 | 62 | 1019.6 |
| 20260905151320 | 81 | 360 | 4.0 | 8.0 | 0.00 | 0.00 | 0.00 | 65 | 1019.8 |
| 20260905143818 | 83 | 360 | 2.0 | 4.0 | 0.00 | 0.00 | 0.00 | 66 | 1019.8 |
| 20260905143351 | 84 | 360 | 0.0 | 2.0 | 0.00 | 0.00 | 0.00 | 64 | 1019.7 |
| 20260905142839 | 84 | 240 | 0.0 | 0.0 | 0.00 | 0.00 | 0.00 | 65 | 1019.8 |
| 20260905141323 | 84 | 240 | 0.0 | 0.0 | 0.00 | 0.00 | 0.00 | 68 | 1019.8 |
| 20260905140855 | 84 | 240 | 0.0 | 0.0 | 0.00 | 0.00 | 0.00 | 66 | 1019.8 |
| 20260905140317 | 83 | 240 | 0.0 | 0.0 | 0.00 | 0.00 | 0.00 | 64 | 1019.9 |
| 20260905135824 | 83 | 238 | 0.0 | 0.0 | 0.00 | 0.00 | 0.00 | 67 | 1019.8 |
| 20260905135324 | 82 | 238 | 0.0 | 0.0 | 0.00 | 0.00 | 0.00 | 67 | 1020.0 |
| 20260905134833 | 82 | 238 | 0.0 | 2.0 | 0.00 | 0.00 | 0.00 | 72 | 1019.9 |
| 20260905134433 | 81 | 238 | 0.0 | 3.0 | 0.00 | 0.00 | 0.00 | 70 | 1019.9 |
| 20260905134352 | 81 | 238 | 0.0 | 3.0 | 0.00 | 0.00 | 0.00 | 70 | 1019.9 |
| 20260905133900 | 81 | 238 | 1.0 | 3.0 | 0.00 | 0.00 | 0.00 | 71 | 1020.1 |
| 20260905133327 | 81 | 242 | 2.0 | 5.0 | 0.00 | 0.00 | 0.00 | 68 | 1020.1 |
| 20260905132817 | 81 | 244 | 3.0 | 7.0 | 0.00 | 0.00 | 0.00 | 65 | 1020.3 |
| 20260905132333 | 81 | 360 | 4.0 | 7.0 | 0.00 | 0.00 | 0.00 | 64 | 1020.3 |
| 20260905131815 | 80 | 360 | 4.0 | 6.0 | 0.00 | 0.00 | 0.00 | 65 | 1020.3 |
| 20260905125830 | 79 | 253 | 2.0 | 5.0 | 0.00 | 0.00 | 0.00 | 67 | 1020.2 |
| 20260905124955 | 80 | 257 | 2.0 | 4.0 | 0.00 | 0.00 | 0.00 | 67 | 1020.4 |
| 20260905124854 | 80 | 257 | 2.0 | 4.0 | 0.00 | 0.00 | 0.00 | 67 | 1020.4 |
| 20260905123904 | 80 | 236 | 1.0 | 3.0 | 0.00 | 0.00 | 0.00 | 66 | 1020.4 |
| 20260905123436 | 80 | 236 | 2.0 | 3.0 | 0.00 | 0.00 | 0.00 | 67 | 1020.4 |
| 20260905123343 | 80 | 236 | 2.0 | 3.0 | 0.00 | 0.00 | 0.00 | 67 | 1020.4 |
| 20260905122833 | 80 | 236 | 2.0 | 3.0 | 0.00 | 0.00 | 0.00 | 65 | 1020.5 |
| 20260905122345 | 80 | 236 | 2.0 | 3.0 | 0.00 | 0.00 | 0.00 | 65 | 1020.5 |
| 20260905121822 | 80 | 232 | 2.0 | 3.0 | 0.00 | 0.00 | 0.00 | 66 | 1020.4 |
| 20260905121321 | 79 | 233 | 2.0 | 3.0 | 0.00 | 0.00 | 0.00 | 68 | 1020.5 |
| 20260905120815 | 78 | 232 | 2.0 | 3.0 | 0.00 | 0.00 | 0.00 | 69 | 1020.5 |
| 20260905120316 | 78 | 244 | 2.0 | 3.0 | 0.00 | 0.00 | 0.00 | 70 | 1020.5 |
| 20260905115411 | 77 | 243 | 1.0 | 3.0 | 0.00 | 0.00 | 0.00 | 74 | 1020.5 |
| 20260905115339 | 77 | 243 | 1.0 | 3.0 | 0.00 | 0.00 | 0.00 | 74 | 1020.5 |
| 20260905115006 | 77 | 244 | 2.0 | 3.0 | 0.00 | 0.00 | 0.00 | 75 | 1020.4 |
| 20260905114853 | 77 | 244 | 2.0 | 3.0 | 0.00 | 0.00 | 0.00 | 75 | 1020.4 |
| 20260905113823 | 77 | 248 | 1.0 | 3.0 | 0.00 | 0.00 | 0.00 | 73 | 1020.5 |
| 20260905113345 | 77 | 248 | 2.0 | 4.0 | 0.00 | 0.00 | 0.00 | 75 | 1020.5 |
| 20260905112825 | 76 | 360 | 3.0 | 4.0 | 0.00 | 0.00 | 0.00 | 73 | 1020.5 |
| 20260905112338 | 77 | 235 | 2.0 | 3.0 | 0.00 | 0.00 | 0.00 | 74 | 1020.6 |
| 20260905111833 | 77 | 240 | 1.0 | 3.0 | 0.00 | 0.00 | 0.00 | 76 | 1020.4 |
| 20260905110826 | 77 | 241 | 1.0 | 3.0 | 0.00 | 0.00 | 0.00 | 76 | 1020.6 |
| 20260905110349 | 77 | 240 | 2.0 | 3.0 | 0.00 | 0.00 | 0.00 | 75 | 1020.6 |
| 20260905105840 | 78 | 240 | 1.0 | 3.0 | 0.00 | 0.00 | 0.00 | 74 | 1020.6 |
| 20260905105407 | 78 | 240 | 2.0 | 3.0 | 0.00 | 0.00 | 0.00 | 72 | 1020.6 |
| 20260905104848 | 79 | 240 | 2.0 | 3.0 | 0.00 | 0.00 | 0.00 | 69 | 1020.5 |
| 20260905104326 | 79 | 242 | 1.0 | 2.0 | 0.00 | 0.00 | 0.00 | 69 | 1020.5 |
| 20260905101818 | 76 | 250 | 0.0 | 2.0 | 0.00 | 0.00 | 0.00 | 75 | 1020.6 |
| 20260905101340 | 75 | 250 | 0.0 | 4.0 | 0.00 | 0.00 | 0.00 | 77 | 1020.7 |
| 20260905100856 | 74 | 250 | 2.0 | 4.0 | 0.00 | 0.00 | 0.00 | 76 | 1020.7 |
| 20260905100315 | 74 | 360 | 2.0 | 4.0 | 0.00 | 0.00 | 0.00 | 77 | 1020.7 |
| 20260905095846 | 74 | 270 | 2.0 | 4.0 | 0.00 | 0.00 | 0.00 | 77 | 1020.7 |
| 20260905095331 | 74 | 275 | 4.0 | 4.0 | 0.00 | 0.00 | 0.00 | 76 | 1020.7 |
| 20260905094818 | 75 | 264 | 0.0 | 0.0 | 0.00 | 0.00 | 0.00 | 77 | 1020.6 |
| 20260905094316 | 75 | 265 | 0.0 | 0.0 | 0.00 | 0.00 | 0.00 | 77 | 1020.6 |
| 20260905093902 | 75 | 265 | 0.0 | 1.0 | 0.00 | 0.00 | 0.00 | 77 | 1020.6 |
| 20260905092900 | 74 | 265 | 1.0 | 3.0 | 0.00 | 0.00 | 0.00 | 80 | 1020.6 |
| 20260905091833 | 72 | 265 | 2.0 | 4.0 | 0.00 | 0.00 | 0.00 | 80 | 1020.6 |
| 20260905091343 | 72 | 266 | 3.0 | 4.0 | 0.00 | 0.00 | 0.00 | 79 | 1020.5 |
| 20260905064345 | 70 | 82 | 2.0 | 6.0 | 0.00 | 0.00 | 0.00 | 86 | 1019.6 |
| 20260905063822 | 69 | 127 | 1.0 | 3.0 | 0.00 | 0.00 | 0.00 | 86 | 1019.5 |
| 20260905063325 | 69 | 46 | 0.0 | 0.0 | 0.00 | 0.00 | 0.00 | 86 | 1019.6 |
| 20260905062821 | 69 | 300 | 0.0 | 0.0 | 0.00 | 0.00 | 0.00 | 86 | 1019.7 |
| 20260905062318 | 69 | 299 | 0.0 | 0.0 | 0.00 | 0.00 | 0.00 | 85 | 1019.5 |